Location: Plainartige
(45.6866°N, 1.7993°E)
Time: 05:59:44
(UTC+00:00)

FO-29 - Visible Passes

Search period start: 28 June 2022 00:00
Search period end: 08 July 2022 00:00
Orbit: 801 x 1320 km, 98.5° (Epoch: 27 June)

Date Brightness Start Highest point End Pass type
(mag) Time Alt. Az. Time Alt. Az. Time Alt. Az.
01 Jul 12.9 20:38:48 10° W 20:40:05 10° WNW 20:41:22 10° WNW visible
03 Jul 12.9 20:32:38 10° W 20:35:00 11° W 20:37:23 10° WNW visible
05 Jul 12.8 20:26:52 10° WSW 20:29:55 13° W 20:33:00 10° WNW visible
07 Jul 12.7 20:21:16 10° WSW 20:24:51 14° W 20:28:28 10° NW visible
